Weather History for KBBD - March, 2013

Change the Weather History Date:

Sunday, March 3, 2013

  Actual Average (KJCT) Record (KJCT)
Temperature  
Mean Temperature 60 °F -  
Max Temperature 78 °F 64 °F 84 °F (2011)
Min Temperature 42 °F 39 °F 17 °F (2014)
Degree Days  
Heating Degree Days 5    
Growing Degree Days 10 (Base 50)    
Moisture  
Dew Point 24 °F    
Average Humidity 28    
Maximum Humidity 53    
Minimum Humidity 11    
Precipitation  
Precipitation 0.00 in - - ()
Sea Level Pressure  
Sea Level Pressure 30.02 in    
Wind  
Wind Speed 10 mph (SSW)    
Max Wind Speed 21 mph    
Max Gust Speed -    
Visibility 10 miles    
Events      
Averages and records for this station are not official NWS values.
T = Trace of Precipitation, MM = Missing Value Source: NWS Daily Summary

Daily Weather History Graph

Daily Weather History Graph

Search for Another Location

Airport or City:

Trip Planner

Search our weather history database for the weather conditions in past years. The results will help you decide how hot, cold, wet, or windy it might be!

Date:

Astronomy

Mar. 03, 2013 Rise Set
Actual Time 7:01 AM CST 6:37 PM CST
Civil Twilight 6:37 AM CST 7:01 PM CST
Nautical Twilight 6:09 AM CST 7:29 PM CST
Astronomical Twilight 5:41 AM CST 7:57 PM CST
Moon No Moon Rise 10:43 AM CST (3/3)
Length of Visible Light 12h 24m
Length of Day
11h 35m
Waning Gibbous, 63% of the Moon is Illuminated
Mar 3
Waning Gibbous
Mar 4
Last Quarter
Mar 11
New
Mar 19
First Quarter
Mar 27
Full

Hourly Weather History & Observations

Time (CST) Temp. Windchill Dew Point Humidity Pressure Visibility Wind Dir Wind Speed Gust Speed Precip Events Conditions
12:55 AM 42.8 °F 41.1 °F 26.6 °F 53% 30.21 in 10.0 mi WSW 3.5 mph - N/A   Clear
1:35 AM 42.8 °F 39.3 °F 26.6 °F 53% 30.21 in 10.0 mi SW 5.8 mph - N/A   Clear
1:55 AM 42.8 °F 38.6 °F 26.6 °F 53% 30.20 in 10.0 mi SW 6.9 mph - N/A   Clear
2:15 AM 42.8 °F 39.3 °F 26.6 °F 53% 30.19 in 10.0 mi SW 5.8 mph - N/A   Clear
2:35 AM 42.8 °F 38.6 °F 26.6 °F 53% 30.18 in 10.0 mi SW 6.9 mph - N/A   Clear
2:55 AM 42.8 °F 39.3 °F 26.6 °F 53% 30.18 in 10.0 mi WSW 5.8 mph - N/A   Clear
3:15 AM 42.8 °F 40.1 °F 26.6 °F 53% 30.17 in 10.0 mi SW 4.6 mph - N/A   Clear
3:35 AM 42.8 °F 40.1 °F 26.6 °F 53% 30.16 in 10.0 mi SW 4.6 mph - N/A   Clear
3:55 AM 42.8 °F 38.0 °F 26.6 °F 53% 30.15 in 10.0 mi SSW 8.1 mph - N/A   Clear
4:15 AM 42.8 °F 38.0 °F 26.6 °F 53% 30.15 in 10.0 mi SW 8.1 mph - N/A   Clear
4:35 AM 44.6 °F 40.2 °F 26.6 °F 49% 30.15 in 10.0 mi SW 8.1 mph - N/A   Clear
4:55 AM 44.6 °F 40.2 °F 26.6 °F 49% 30.15 in 10.0 mi SW 8.1 mph - N/A   Clear
5:15 AM 44.6 °F 40.2 °F 26.6 °F 49% 30.16 in 10.0 mi SW 8.1 mph - N/A   Clear
5:35 AM 44.6 °F 40.7 °F 26.6 °F 49% 30.15 in 10.0 mi SW 6.9 mph - N/A   Clear
5:55 AM 44.6 °F 41.4 °F 24.8 °F 46% 30.15 in 10.0 mi SSW 5.8 mph - N/A   Clear
6:15 AM 46.4 °F 43.5 °F 24.8 °F 43% 30.16 in 10.0 mi SW 5.8 mph - N/A   Clear
6:35 AM 44.6 °F 42.2 °F 24.8 °F 46% 30.15 in 10.0 mi SSW 4.6 mph - N/A   Clear
6:55 AM 44.6 °F 42.2 °F 24.8 °F 46% 30.15 in 10.0 mi SSW 4.6 mph - N/A   Clear
7:15 AM 44.6 °F 42.2 °F 24.8 °F 46% 30.15 in 10.0 mi SSW 4.6 mph - N/A   Clear
7:35 AM 46.4 °F 42.9 °F 24.8 °F 43% 30.16 in 10.0 mi SSW 6.9 mph - N/A   Clear
7:55 AM 50.0 °F - 24.8 °F 37% 30.15 in 10.0 mi SSW 9.2 mph - N/A   Clear
8:15 AM 51.8 °F - 24.8 °F 35% 30.15 in 10.0 mi South 10.4 mph - N/A   Clear
8:35 AM 53.6 °F - 24.8 °F 33% 30.15 in 10.0 mi SSW 13.8 mph - N/A   Clear
8:55 AM 55.4 °F - 24.8 °F 31% 30.15 in 10.0 mi South 12.7 mph - N/A   Clear
9:15 AM 57.2 °F - 24.8 °F 29% 30.15 in 10.0 mi SSW 12.7 mph - N/A   Clear
9:35 AM 60.8 °F - 24.8 °F 25% 30.14 in 10.0 mi South 12.7 mph - N/A   Clear
9:55 AM 62.6 °F - 24.8 °F 24% 30.13 in 10.0 mi SSW 18.4 mph - N/A   Clear
10:15 AM 64.4 °F - 23.0 °F 21% 30.12 in 10.0 mi SSW 18.4 mph - N/A   Clear
10:35 AM 66.2 °F - 24.8 °F 21% 30.11 in 10.0 mi SSW 16.1 mph - N/A   Clear
10:55 AM 69.8 °F - 24.8 °F 18% 30.10 in 10.0 mi SSW 18.4 mph - N/A   Clear
11:15 AM 69.8 °F - 24.8 °F 18% 30.09 in 10.0 mi South 17.3 mph - N/A   Clear
11:35 AM 69.8 °F - 24.8 °F 18% 30.08 in 10.0 mi South 19.6 mph - N/A   Clear
11:55 AM 71.6 °F - 24.8 °F 17% 30.07 in 10.0 mi South 16.1 mph - N/A   Clear
12:15 PM 71.6 °F - 23.0 °F 16% 30.05 in 10.0 mi South 17.3 mph - N/A   Clear
12:35 PM 73.4 °F - 23.0 °F 15% 30.03 in 10.0 mi South 19.6 mph - N/A   Clear
12:55 PM 75.2 °F - 21.2 °F 13% 30.02 in 10.0 mi South 17.3 mph - N/A   Clear
1:15 PM 75.2 °F - 21.2 °F 13% 30.01 in 10.0 mi SSW 15.0 mph - N/A   Clear
1:35 PM 75.2 °F - 21.2 °F 13% 29.99 in 10.0 mi SSW 13.8 mph - N/A   Clear
1:55 PM 75.2 °F - 21.2 °F 13% 29.97 in 10.0 mi South 18.4 mph - N/A   Clear
2:15 PM 77.0 °F - 21.2 °F 12% 29.96 in 10.0 mi South 18.4 mph - N/A   Clear
2:35 PM 78.8 °F - 21.2 °F 12% 29.95 in 10.0 mi South 20.7 mph - N/A   Clear
2:55 PM 78.8 °F - 21.2 °F 12% 29.94 in 10.0 mi South 17.3 mph - N/A   Clear
3:15 PM 78.8 °F - 21.2 °F 12% 29.93 in 10.0 mi South 19.6 mph - N/A   Clear
3:35 PM 78.8 °F - 19.4 °F 11% 29.92 in 10.0 mi South 20.7 mph - N/A   Clear
3:55 PM 78.8 °F - 21.2 °F 12% 29.91 in 10.0 mi South 19.6 mph - N/A   Clear
4:15 PM 78.8 °F - 19.4 °F 11% 29.90 in 10.0 mi SSW 19.6 mph - N/A   Clear
4:35 PM 77.0 °F - 19.4 °F 12% 29.89 in 10.0 mi SSW 17.3 mph - N/A   Clear
4:55 PM 75.2 °F - 21.2 °F 13% 29.89 in 10.0 mi South 18.4 mph - N/A   Clear
5:15 PM 75.2 °F - 21.2 °F 13% 29.89 in 10.0 mi South 17.3 mph - N/A   Clear
5:35 PM 73.4 °F - 21.2 °F 14% 29.89 in 10.0 mi South 16.1 mph - N/A   Clear
5:55 PM 71.6 °F - 21.2 °F 15% 29.88 in 10.0 mi South 18.4 mph - N/A   Clear
6:15 PM 71.6 °F - 23.0 °F 16% 29.88 in 10.0 mi South 16.1 mph - N/A   Clear
6:35 PM 69.8 °F - 24.8 °F 18% 29.88 in 10.0 mi South 13.8 mph - N/A   Clear
6:55 PM 69.8 °F - 24.8 °F 18% 29.88 in 10.0 mi South 11.5 mph - N/A   Clear
7:15 PM 66.2 °F - 24.8 °F 21% 29.88 in 10.0 mi South 9.2 mph - N/A   Clear
7:35 PM 66.2 °F - 24.8 °F 21% 29.88 in 10.0 mi SSE 10.4 mph - N/A   Clear
7:55 PM 66.2 °F - 24.8 °F 21% 29.87 in 10.0 mi SSE 9.2 mph - N/A   Clear
8:15 PM 66.2 °F - 24.8 °F 21% 29.88 in 10.0 mi SSE 9.2 mph - N/A   Clear
8:35 PM 66.2 °F - 24.8 °F 21% 29.87 in 10.0 mi South 11.5 mph - N/A   Clear
8:55 PM 64.4 °F - 24.8 °F 22% 29.87 in 10.0 mi South 11.5 mph - N/A   Clear
9:15 PM 64.4 °F - 24.8 °F 22% 29.87 in 10.0 mi South 13.8 mph - N/A   Clear
9:35 PM 66.2 °F - 24.8 °F 21% 29.87 in 10.0 mi South 11.5 mph - N/A   Clear
9:55 PM 64.4 °F - 24.8 °F 22% 29.87 in 10.0 mi South 13.8 mph - N/A   Clear
10:15 PM 64.4 °F - 24.8 °F 22% 29.87 in 10.0 mi South 12.7 mph - N/A   Clear
10:35 PM 64.4 °F - 24.8 °F 22% 29.87 in 10.0 mi South 13.8 mph - N/A   Clear
10:55 PM 64.4 °F - 24.8 °F 22% 29.85 in 10.0 mi South 13.8 mph - N/A   Clear
11:15 PM 62.6 °F - 24.8 °F 24% 29.85 in 10.0 mi South 13.8 mph - N/A   Clear
11:35 PM 62.6 °F - 24.8 °F 24% 29.83 in 10.0 mi South 17.3 mph - N/A   Clear
11:55 PM 62.6 °F - 24.8 °F 24% 29.83 in 10.0 mi South 16.1 mph - N/A   Clear